Regional Weather Roundup
Issued by NWS

Home | Current Version | Previous Version | Graphics & Text | Print | Product List | Glossary On
Versions: 1 2 3 4 5 6 7 8 9 10 11 12 13 14 15 16 17 18 19 20 21 22 23 24 25 26 27
000
ASUS45 KPSR 041510
RWRAZ

ARIZONA HOURLY REGIONAL WEATHER ROUNDUP
NATIONAL WEATHER SERVICE PHOENIX AZ
800 AM MST WED MAY 04 2016

NOTE: FAIR INDICATES FEW OR NO CLOUDS BELOW 12,000 FEET WITH NO
SIGNIFICANT WEATHER AND/OR OBSTRUCTIONS TO VISIBILITY.

AZZ001>003-036-041600-
NORTHWEST ARIZONA

CITY           SKY/WX    TMP DP  RH WIND       PRES   REMARKS
BULLHEAD CITY  SUNNY     73  39  29 CALM      29.92S
KINGMAN        SUNNY     72  34  24 E20       30.02S
$$

AZZ004>008-015-016-018-041600-
NORTH CENTRAL ARIZONA

CITY           SKY/WX    TMP DP  RH WIND       PRES   REMARKS
GRAND CANYON   SUNNY     62  32  32 SE7       30.26R
WILLIAMS       SUNNY     59  30  33 SE12      30.32S
PRESCOTT       SUNNY     65  33  30 VRB3      30.15S
FLAGSTAFF      SUNNY     56  32  40 CALM      30.29R
PAYSON         SUNNY     66  30  26 E8        30.21S
PAGE           SUNNY     62  33  33 NW3       30.19S
$$

AZZ009>014-017-041600-
NORTHEAST ARIZONA

CITY           SKY/WX    TMP DP  RH WIND       PRES   REMARKS
WINSLOW        SUNNY     57  39  51 SE6       30.23R
SAINT JOHNS    SUNNY     63  31  30 E10       30.24S
WINDOW ROCK    SUNNY     50  32  50 CALM      30.35R
SHOW LOW       SUNNY     63  27  25 S13       30.28R
$$

AZZ023-041600-
GREATER PHOENIX AREA

CITY           SKY/WX    TMP DP  RH WIND       PRES   REMARKS
PHOENIX        SUNNY     78  38  23 SE7       29.91R
BUCKEYE        SUNNY     73  36  25 CALM      29.92R
GLENDALE       SUNNY     79  37  22 CALM      29.93R
LUKE AFB       SUNNY     77  38  25 N3        29.91R
DEER VALLEY    SUNNY     84  32  15 E9        29.92S
SCOTTSDALE     SUNNY     85  29  13 E8        29.94S
MESA-FALCON    SUNNY    N/A N/A N/A N12       29.91R
MESA-GATEWAY   SUNNY     77  36  22 SE6       29.94R
CHANDLER       SUNNY     77  39  25 CALM      29.93R
$$

AZZ027-028-041600-
SOUTHWEST MARICOPA COUNTY AND PINAL COUNTY

CITY           SKY/WX    TMP DP  RH WIND       PRES   REMARKS
CASA GRANDE    SUNNY    N/A N/A N/A MISG        N/A
GILA BEND      SUNNY     76  29  18 NE6       29.88R
$$

AZZ503-504-507>509-041600-
SOUTHEAST ARIZONA

CITY           SKY/WX    TMP DP  RH WIND       PRES   REMARKS
TUCSON         SUNNY     79  28  15 SE9       30.02R
DAVIS-MONTHAN  SUNNY     82  28  14 SE22      30.00R
NOGALES        SUNNY     70  30  22 SW5       30.07R
SIERRA VISTA   SUNNY     72  25  17 SE16      30.16R
DOUGLAS        SUNNY     74  30  19 E20G26    30.13S
SAFFORD        SUNNY     74  33  22 E18G29    30.14R
$$

AZZ020-021-025-026-031-041600-
SOUTHWEST ARIZONA

CITY           SKY/WX    TMP DP  RH WIND       PRES   REMARKS
YUMA           SUNNY     78  37  22 E5        29.83S
$$

CAZ031-033-041-043-047-048-061-041600-
SOUTHERN CALIFORNIA

CITY           SKY/WX    TMP DP  RH WIND       PRES   REMARKS
DOWNTOWN L.A.  CLOUDY    60  55  83 CALM      29.95R HAZE
L.A. AIRPORT   CLOUDY    59  54  83 SE3       29.96R FOG
SAN DIEGO      CLOUDY    62  53  72 NW3       29.97R
BURBANK        CLOUDY    57  53  86 S7        29.95R FOG
ONTARIO        PTSUNNY   58  54  86 CALM      29.95S FOG
RIVERSIDE      CLOUDY    57  53  86 W3        29.96R FOG
PALM SPRINGS   SUNNY     77  41  27 CALM      29.87R
EL CENTRO NAS  MOSUNNY   75  40  28 W6        29.84R
IMPERIAL       SUNNY     74  46  36 W5        29.82R
BLYTHE         SUNNY     75  35  23 CALM      29.85S
NEEDLES        SUNNY     76  40  27 SE3       29.89S
$$

NVZ020-UTZ003-041600-
SOUTHERN NEVADA-UTAH

CITY           SKY/WX    TMP DP  RH WIND       PRES   REMARKS
LAS VEGAS      MOSUNNY   74  34  23 N5        29.93R
SALT LAKE CITY PTSUNNY   64  34  32 S14       30.15S
$$

NMZ009-TXZ055-041600-
NEW MEXICO-WEST TEXAS

CITY           SKY/WX    TMP DP  RH WIND       PRES   REMARKS
ALBUQUERQUE    MOSUNNY   57  31  37 N9        30.33S
EL PASO        SUNNY     68  33  27 E8        30.25R
$$


........................KEY........................
SKY/WX - SKY CONDITION/WEATHER
TMP    - TEMPERATURE IN FAHRENHEIT
DP     - DEW POINT IN FAHRENHEIT
RH     - RELATIVE HUMIDITY IN PERCENT
WIND   - DIRECTION AND SPEED IN MILES PER HOUR (MPH)
VRB    - VARIABLE WIND DIRECTION
PRES   - MEAN SEA LEVEL PRESSURE IN INCHES OF MERCURY
         F - FALLING PRESSURE   R - RISING PRESSURE
         S - STEADY PRESSURE
VSB    - VISIBILITY IN MILES
HX     - HEAT INDEX IN FAHRENHEIT
WCI    - WIND CHILL INDEX IN FAHRENHEIT
TC     - TEMPERATURE IN CELSIUS WHICH IS ALSO KNOWN AS
         TEMPERATURE IN CENTIGRADE
AFB    - AIR FORCE BASE
         LUKE AFB IS LUKE AIR FORCE BASE
         DAVIS-MONTHAN IS DAVIS-MONTHAN AIR FORCE BASE
NAS    - NAVAL AIR STATION
         EL CENTRO NAS IS EL CENTRO NAVAL AIR STATION
N/A    - NOT AVAILABLE





USA.gov is the U.S. government's official web portal to all federal, state and local government web resources and services.